Retour au catalogue

ELEKTRON 3 DEB

ActifHEO
NORAD 29008·DEBRIS·🇷🇺 Russia

Lancé Jul 10, 1964 depuis Baikonur Cosmodrome

Loading…

Prochains Passages (prochaines 24 heures)

TLE

VieillissantSource: Space-Track

Époque: Sep 3, 2026, 22:32 UTC

1 29008U 64038G   26246.93930326  .00000755  00000-0  18883-3 0  9993
2 29008  60.8350  27.5610 2866111  55.9981 328.1046  9.37977620739346

Suivez ELEKTRON 3 DEB en temps réel avec AllMySat

Download on the App Store